Location: The Saddle
(36.8333°N, 80.3417°W)
Time: 00:04:18
(UTC-05:00)

Explorer 11/Cluster Stage 4 - Visible Passes

Search period start: 30 January 2023 00:00
Search period end: 09 February 2023 00:00
Orbit: 466 x 1244 km, 28.8° (Epoch: 29 January)

Date Brightness Start Highest point End Pass type
(mag) Time Alt. Az. Time Alt. Az. Time Alt. Az.
30 Jan 9.2 05:44:43 10° SSW 05:50:57 25° SSE 05:57:03 10° ESE visible
31 Jan 9.1 05:30:57 10° SSW 05:37:26 27° SSE 05:43:51 10° ESE visible
01 Feb 9.7 03:36:22 11° SE 03:36:22 11° SE 03:37:55 10° SE visible
01 Feb 8.9 05:18:22 14° SSW 05:23:53 29° SSE 05:30:34 10° ESE visible
02 Feb 9.8 03:24:18 11° SE 03:24:18 11° SE 03:25:23 10° SE visible
02 Feb 8.8 05:06:18 20° SSW 05:10:20 31° SSE 05:17:14 10° ESE visible
02 Feb 8.4 06:51:15 10° WSW 06:58:56 46° S 07:06:21 10° ESE visible
03 Feb 9.8 03:12:07 11° ESE 03:12:07 11° ESE 03:12:27 10° ESE visible
03 Feb 8.6 04:54:06 27° SSW 04:56:47 33° SSE 05:03:51 10° E visible
03 Feb 8.3 06:37:44 10° WSW 06:45:24 47° S 06:52:57 10° ESE visible
04 Feb 8.4 04:41:48 32° S 04:43:13 35° SSE 04:50:24 10° E visible
04 Feb 8.2 06:24:15 10° WSW 06:31:51 48° S 06:39:30 10° ESE visible
05 Feb 8.3 04:29:25 36° SSE 04:29:39 36° SSE 04:36:54 10° E visible
05 Feb 8.2 06:11:23 13° WSW 06:18:17 48° S 06:26:01 10° ESE visible
06 Feb 8.3 04:16:58 36° SSE 04:16:58 36° SSE 04:23:22 10° E visible
06 Feb 8.1 05:58:56 17° WSW 06:04:44 48° S 06:12:29 10° ESE visible
07 Feb 8.5 04:04:29 34° SE 04:04:29 34° SE 04:09:47 10° ESE visible
07 Feb 8.0 05:46:26 22° WSW 05:51:10 47° S 05:58:55 10° ESE visible
08 Feb 8.7 03:51:57 29° SE 03:51:57 29° SE 03:56:12 10° ESE visible
08 Feb 8.0 05:33:55 28° WSW 05:37:36 46° S 05:45:18 10° ESE visible
